| time (UTC) | temp C | wind direction | speed KPH | gust KPH | rain 1hr cm | rain 24hr cm | rain mn cm | humidity % | barometer mb |
| 20260906052735 | 30 | 232 | 0.0 | 3.2 | 0.00 | 0.00 | 0.00 | 68 | 1015.0 |
| 20260906052237 | 30 | 322 | 0.0 | 3.2 | 0.00 | 0.00 | 0.00 | 67 | 1014.0 |
| 20260906051739 | 30 | 308 | 1.6 | 3.2 | 0.00 | 0.00 | 0.00 | 67 | 1015.0 |
| 20260906051236 | 30 | 89 | 0.0 | 3.2 | 0.00 | 0.00 | 0.00 | 67 | 1015.0 |
| 20260906050735 | 30 | 304 | 0.0 | 4.8 | 0.00 | 0.00 | 0.00 | 66 | 1015.0 |
| 20260906050236 | 30 | 230 | 0.0 | 3.2 | 0.00 | 0.00 | 0.00 | 66 | 1014.0 |
| 20260906045736 | 30 | 330 | 0.0 | 3.2 | 0.00 | 0.00 | 0.00 | 66 | 1014.0 |
| 20260906045235 | 30 | 107 | 1.6 | 1.6 | 0.00 | 0.00 | 0.00 | 65 | 1014.0 |
| 20260906044735 | 30 | 254 | 0.0 | 3.2 | 0.00 | 0.00 | 0.00 | 65 | 1014.0 |
| 20260906044235 | 31 | 164 | 1.6 | 1.6 | 0.00 | 0.00 | 0.00 | 65 | 1014.0 |
| 20260906043735 | 31 | 263 | 1.6 | 3.2 | 0.00 | 0.00 | 0.00 | 64 | 1014.0 |
| 20260906043236 | 31 | 315 | 0.0 | 3.2 | 0.00 | 0.00 | 0.00 | 64 | 1014.0 |
| 20260906042735 | 31 | 160 | 1.6 | 4.8 | 0.00 | 0.00 | 0.00 | 64 | 1014.0 |
| 20260906042235 | 31 | 333 | 0.0 | 3.2 | 0.00 | 0.00 | 0.00 | 63 | 1014.0 |
| 20260906041735 | 31 | 126 | 0.0 | 3.2 | 0.00 | 0.00 | 0.00 | 63 | 1014.0 |
| 20260906041235 | 31 | 230 | 3.2 | 4.8 | 0.00 | 0.00 | 0.00 | 62 | 1014.0 |
| 20260906040735 | 31 | 304 | 0.0 | 4.8 | 0.00 | 0.00 | 0.00 | 62 | 1014.0 |
| 20260906040235 | 31 | 171 | 0.0 | 3.2 | 0.00 | 0.00 | 0.00 | 61 | 1014.0 |
| 20260906035735 | 31 | 315 | 0.0 | 4.8 | 0.00 | 0.00 | 0.00 | 61 | 1014.0 |
| 20260906035236 | 31 | 193 | 0.0 | 3.2 | 0.00 | 0.00 | 0.00 | 60 | 1014.0 |
| 20260906034735 | 31 | 8 | 3.2 | 4.8 | 0.00 | 0.00 | 0.00 | 60 | 1014.0 |
| 20260906034235 | 31 | 332 | 1.6 | 3.2 | 0.00 | 0.00 | 0.00 | 59 | 1014.0 |
| 20260906033735 | 31 | 310 | 0.0 | 4.8 | 0.00 | 0.00 | 0.00 | 59 | 1014.0 |
| 20260906033236 | 31 | 319 | 3.2 | 4.8 | 0.00 | 0.00 | 0.00 | 58 | 1014.0 |
| 20260906032735 | 32 | 80 | 0.0 | 3.2 | 0.00 | 0.00 | 0.00 | 57 | 1014.0 |
| 20260906032235 | 32 | 346 | 3.2 | 6.4 | 0.00 | 0.00 | 0.00 | 57 | 1014.0 |
| 20260906031735 | 32 | 8 | 0.0 | 9.7 | 0.00 | 0.00 | 0.00 | 56 | 1014.0 |
| 20260906031235 | 32 | 33 | 6.4 | 6.4 | 0.00 | 0.00 | 0.00 | 56 | 1014.0 |
| 20260906030735 | 32 | 344 | 1.6 | 4.8 | 0.00 | 0.00 | 0.00 | 55 | 1014.0 |
| 20260906030237 | 32 | 346 | 1.6 | 3.2 | 0.00 | 0.00 | 0.00 | 54 | 1014.0 |
| 20260906025735 | 31 | 298 | 3.2 | 6.4 | 0.00 | 0.00 | 0.00 | 54 | 1014.0 |
| 20260906025235 | 31 | 306 | 1.6 | 3.2 | 0.00 | 0.00 | 0.00 | 54 | 1014.0 |
| 20260906024735 | 31 | 314 | 0.0 | 3.2 | 0.00 | 0.00 | 0.00 | 55 | 1014.0 |
| 20260906024235 | 31 | 259 | 3.2 | 3.2 | 0.00 | 0.00 | 0.00 | 54 | 1014.0 |
| 20260906023735 | 31 | 265 | 3.2 | 4.8 | 0.00 | 0.00 | 0.00 | 54 | 1014.0 |
| 20260906023235 | 31 | 271 | 0.0 | 3.2 | 0.00 | 0.00 | 0.00 | 53 | 1014.0 |
| 20260906022735 | 31 | 255 | 0.0 | 3.2 | 0.00 | 0.00 | 0.00 | 53 | 1013.0 |
| 20260906022235 | 31 | 307 | 0.0 | 3.2 | 0.00 | 0.00 | 0.00 | 53 | 1013.0 |
| 20260906021735 | 32 | 266 | 1.6 | 3.2 | 0.00 | 0.00 | 0.00 | 53 | 1013.0 |
| 20260906021235 | 32 | 251 | 3.2 | 3.2 | 0.00 | 0.00 | 0.00 | 53 | 1013.0 |
| 20260906020735 | 32 | 266 | 1.6 | 3.2 | 0.00 | 0.00 | 0.00 | 52 | 1013.0 |
| 20260906020235 | 32 | 266 | 1.6 | 3.2 | 0.00 | 0.00 | 0.00 | 52 | 1013.0 |
| 20260906015736 | 32 | 296 | 3.2 | 3.2 | 0.00 | 0.00 | 0.00 | 52 | 1013.0 |
| 20260906015236 | 32 | 255 | 1.6 | 3.2 | 0.00 | 0.00 | 0.00 | 53 | 1013.0 |
| 20260906014735 | 32 | 269 | 1.6 | 3.2 | 0.00 | 0.00 | 0.00 | 53 | 1013.0 |
| 20260906014235 | 32 | 262 | 3.2 | 3.2 | 0.00 | 0.00 | 0.00 | 53 | 1013.0 |
| 20260906013735 | 32 | 258 | 3.2 | 3.2 | 0.00 | 0.00 | 0.00 | 51 | 1013.0 |
| 20260906013236 | 32 | 271 | 1.6 | 3.2 | 0.00 | 0.00 | 0.00 | 51 | 1013.0 |
| 20260906012735 | 33 | 252 | 1.6 | 3.2 | 0.00 | 0.00 | 0.00 | 50 | 1013.0 |
| 20260906012235 | 33 | 262 | 0.0 | 3.2 | 0.00 | 0.00 | 0.00 | 50 | 1013.0 |
| 20260906011736 | 33 | 333 | 1.6 | 3.2 | 0.00 | 0.00 | 0.00 | 50 | 1013.0 |
| 20260906011236 | 33 | 258 | 1.6 | 3.2 | 0.00 | 0.00 | 0.00 | 49 | 1013.0 |
| 20260906010735 | 33 | 262 | 1.6 | 3.2 | 0.00 | 0.00 | 0.00 | 49 | 1013.0 |
| 20260906010235 | 33 | 266 | 0.0 | 3.2 | 0.00 | 0.00 | 0.00 | 48 | 1013.0 |
| 20260906005735 | 33 | 301 | 0.0 | 4.8 | 0.00 | 0.00 | 0.00 | 48 | 1012.0 |
| 20260906005235 | 33 | 313 | 1.6 | 3.2 | 0.00 | 0.00 | 0.00 | 47 | 1012.0 |
| 20260906004736 | 33 | 324 | 3.2 | 4.8 | 0.00 | 0.00 | 0.00 | 47 | 1012.0 |
| 20260906004235 | 34 | 314 | 1.6 | 4.8 | 0.00 | 0.00 | 0.00 | 47 | 1012.0 |
| 20260906003735 | 34 | 268 | 3.2 | 3.2 | 0.00 | 0.00 | 0.00 | 46 | 1012.0 |
| 20260906003235 | 34 | 308 | 1.6 | 3.2 | 0.00 | 0.00 | 0.00 | 46 | 1012.0 |
| 20260906002735 | 35 | 259 | 1.6 | 3.2 | 0.00 | 0.00 | 0.00 | 46 | 1012.0 |
| 20260906002235 | 35 | 259 | 3.2 | 3.2 | 0.00 | 0.00 | 0.00 | 45 | 1012.0 |
| 20260906001735 | 35 | 195 | 0.0 | 3.2 | 0.00 | 0.00 | 0.00 | 45 | 1012.0 |
| 20260906001235 | 35 | 232 | 3.2 | 3.2 | 0.00 | 0.00 | 0.00 | 44 | 1012.0 |
| 20260906000735 | 35 | 355 | 4.8 | 4.8 | 0.00 | 0.00 | 0.00 | 44 | 1012.0 |
| 20260906000235 | 35 | 319 | 4.8 | 4.8 | 0.00 | 0.00 | 0.00 | 43 | 1012.0 |
| 20260905235735 | 35 | 260 | 1.6 | 3.2 | 0.00 | 0.00 | 0.00 | 44 | 1012.0 |
| 20260905235235 | 35 | 308 | 3.2 | 4.8 | 0.00 | 0.00 | 0.00 | 43 | 1012.0 |
| 20260905234735 | 35 | 281 | 1.6 | 4.8 | 0.00 | 0.00 | 0.00 | 44 | 1012.0 |
| 20260905234235 | 35 | 277 | 3.2 | 3.2 | 0.00 | 0.00 | 0.00 | 44 | 1012.0 |
| 20260905233735 | 36 | 283 | 1.6 | 3.2 | 0.00 | 0.00 | 0.00 | 43 | 1012.0 |
| 20260905233235 | 36 | 257 | 1.6 | 4.8 | 0.00 | 0.00 | 0.00 | 43 | 1012.0 |
| 20260905232735 | 36 | 280 | 4.8 | 6.4 | 0.00 | 0.00 | 0.00 | 42 | 1012.0 |
| 20260905232235 | 36 | 296 | 4.8 | 6.4 | 0.00 | 0.00 | 0.00 | 42 | 1013.0 |
| 20260905231735 | 36 | 285 | 4.8 | 6.4 | 0.00 | 0.00 | 0.00 | 41 | 1012.0 |
| 20260905231235 | 36 | 285 | 4.8 | 8.0 | 0.00 | 0.00 | 0.00 | 42 | 1013.0 |
| 20260905230735 | 36 | 303 | 6.4 | 8.0 | 0.00 | 0.00 | 0.00 | 41 | 1012.0 |
| 20260905230236 | 36 | 283 | 4.8 | 9.7 | 0.00 | 0.00 | 0.00 | 40 | 1013.0 |
| 20260905225735 | 37 | 304 | 6.4 | 8.0 | 0.00 | 0.00 | 0.00 | 39 | 1012.0 |
| 20260905225235 | 37 | 286 | 4.8 | 6.4 | 0.00 | 0.00 | 0.00 | 39 | 1012.0 |
| 20260905224735 | 37 | 304 | 0.0 | 4.8 | 0.00 | 0.00 | 0.00 | 40 | 1012.0 |
| 20260905224235 | 37 | 266 | 4.8 | 8.0 | 0.00 | 0.00 | 0.00 | 40 | 1012.0 |
| 20260905223735 | 36 | 291 | 4.8 | 8.0 | 0.00 | 0.00 | 0.00 | 40 | 1012.0 |
| 20260905223236 | 36 | 276 | 4.8 | 6.4 | 0.00 | 0.00 | 0.00 | 41 | 1012.0 |
| 20260905222735 | 36 | 280 | 6.4 | 6.4 | 0.00 | 0.00 | 0.00 | 42 | 1012.0 |
| 20260905222236 | 36 | 290 | 3.2 | 6.4 | 0.00 | 0.00 | 0.00 | 42 | 1012.0 |
| 20260905221736 | 36 | 295 | 3.2 | 4.8 | 0.00 | 0.00 | 0.00 | 41 | 1012.0 |
| 20260905221235 | 36 | 281 | 6.4 | 6.4 | 0.00 | 0.00 | 0.00 | 41 | 1012.0 |
| 20260905220735 | 36 | 312 | 4.8 | 6.4 | 0.00 | 0.00 | 0.00 | 40 | 1012.0 |
| 20260905220236 | 36 | 278 | 3.2 | 6.4 | 0.00 | 0.00 | 0.00 | 41 | 1013.0 |
| 20260905215735 | 36 | 302 | 8.0 | 8.0 | 0.00 | 0.00 | 0.00 | 41 | 1012.0 |
| 20260905215235 | 37 | 324 | 4.8 | 8.0 | 0.00 | 0.00 | 0.00 | 40 | 1013.0 |
| 20260905214735 | 37 | 264 | 8.0 | 11.3 | 0.00 | 0.00 | 0.00 | 39 | 1012.0 |
| 20260905214235 | 37 | 260 | 6.4 | 9.7 | 0.00 | 0.00 | 0.00 | 39 | 1012.0 |
| 20260905213736 | 36 | 267 | 3.2 | 6.4 | 0.00 | 0.00 | 0.00 | 38 | 1012.0 |
| 20260905213235 | 36 | 264 | 4.8 | 6.4 | 0.00 | 0.00 | 0.00 | 38 | 1012.0 |
| 20260905212735 | 36 | 261 | 3.2 | 6.4 | 0.00 | 0.00 | 0.00 | 39 | 1012.0 |
| 20260905212235 | 36 | 275 | 3.2 | 6.4 | 0.00 | 0.00 | 0.00 | 38 | 1012.0 |
| 20260905211735 | 36 | 258 | 6.4 | 8.0 | 0.00 | 0.00 | 0.00 | 38 | 1012.0 |
| 20260905211236 | 36 | 273 | 3.2 | 4.8 | 0.00 | 0.00 | 0.00 | 39 | 1012.0 |
| 20260905210735 | 35 | 243 | 4.8 | 8.0 | 0.00 | 0.00 | 0.00 | 39 | 1012.0 |
| 20260905210235 | 35 | 267 | 4.8 | 8.0 | 0.00 | 0.00 | 0.00 | 39 | 1013.0 |
| 20260905205736 | 35 | 259 | 4.8 | 8.0 | 0.00 | 0.00 | 0.00 | 38 | 1013.0 |
| 20260905205235 | 35 | 260 | 4.8 | 11.3 | 0.00 | 0.00 | 0.00 | 38 | 1013.0 |
| 20260905204735 | 35 | 231 | 3.2 | 8.0 | 0.00 | 0.00 | 0.00 | 39 | 1013.0 |
| 20260905204236 | 35 | 237 | 4.8 | 8.0 | 0.00 | 0.00 | 0.00 | 39 | 1013.0 |
| 20260905203736 | 36 | 284 | 11.3 | 16.1 | 0.00 | 0.00 | 0.00 | 37 | 1013.0 |
| 20260905203235 | 36 | 250 | 8.0 | 8.0 | 0.00 | 0.00 | 0.00 | 39 | 1013.0 |
| 20260905202740 | 36 | 285 | 3.2 | 4.8 | 0.00 | 0.00 | 0.00 | 39 | 1013.0 |
| 20260905202236 | 37 | 292 | 4.8 | 6.4 | 0.00 | 0.00 | 0.00 | 40 | 1013.0 |
| 20260905201735 | 37 | 302 | 3.2 | 3.2 | 0.00 | 0.00 | 0.00 | 38 | 1013.0 |
| 20260905201235 | 37 | 258 | 3.2 | 4.8 | 0.00 | 0.00 | 0.00 | 37 | 1013.0 |
| 20260905200735 | 37 | 249 | 6.4 | 6.4 | 0.00 | 0.00 | 0.00 | 37 | 1013.0 |
| 20260905200235 | 37 | 285 | 1.6 | 4.8 | 0.00 | 0.00 | 0.00 | 36 | 1013.0 |
| 20260905195736 | 37 | 272 | 1.6 | 6.4 | 0.00 | 0.00 | 0.00 | 35 | 1013.0 |
| 20260905195236 | 37 | 236 | 0.0 | 4.8 | 0.00 | 0.00 | 0.00 | 36 | 1013.0 |
| 20260905194735 | 38 | 298 | 8.0 | 9.7 | 0.00 | 0.00 | 0.00 | 35 | 1013.0 |
| 20260905194235 | 37 | 279 | 3.2 | 8.0 | 0.00 | 0.00 | 0.00 | 36 | 1013.0 |
| 20260905193735 | 38 | 280 | 4.8 | 9.7 | 0.00 | 0.00 | 0.00 | 35 | 1013.0 |
| 20260905193235 | 38 | 315 | 6.4 | 8.0 | 0.00 | 0.00 | 0.00 | 36 | 1013.0 |
| 20260905192735 | 37 | 296 | 4.8 | 8.0 | 0.00 | 0.00 | 0.00 | 36 | 1014.0 |
| 20260905192235 | 37 | 295 | 3.2 | 4.8 | 0.00 | 0.00 | 0.00 | 37 | 1013.0 |
| 20260905191736 | 37 | 251 | 6.4 | 12.9 | 0.00 | 0.00 | 0.00 | 36 | 1013.0 |
| 20260905191236 | 37 | 260 | 3.2 | 8.0 | 0.00 | 0.00 | 0.00 | 36 | 1014.0 |
| 20260905190736 | 37 | 269 | 6.4 | 8.0 | 0.00 | 0.00 | 0.00 | 36 | 1014.0 |
| 20260905190236 | 37 | 256 | 6.4 | 9.7 | 0.00 | 0.00 | 0.00 | 36 | 1013.0 |
| 20260905185736 | 37 | 285 | 4.8 | 9.7 | 0.00 | 0.00 | 0.00 | 36 | 1013.0 |
| 20260905185235 | 37 | 249 | 8.0 | 16.1 | 0.00 | 0.00 | 0.00 | 37 | 1014.0 |
| 20260905184736 | 37 | 243 | 12.9 | 14.5 | 0.00 | 0.00 | 0.00 | 37 | 1014.0 |
| 20260905184235 | 37 | 275 | 6.4 | 8.0 | 0.00 | 0.00 | 0.00 | 38 | 1014.0 |
| 20260905183736 | 37 | 258 | 6.4 | 11.3 | 0.00 | 0.00 | 0.00 | 37 | 1014.0 |
| 20260905183235 | 37 | 302 | 11.3 | 14.5 | 0.00 | 0.00 | 0.00 | 39 | 1014.0 |
| 20260905182735 | 37 | 310 | 3.2 | 8.0 | 0.00 | 0.00 | 0.00 | 41 | 1014.0 |
| 20260905182235 | 36 | 241 | 4.8 | 6.4 | 0.00 | 0.00 | 0.00 | 39 | 1014.0 |
| 20260905181735 | 36 | 274 | 3.2 | 9.7 | 0.00 | 0.00 | 0.00 | 40 | 1014.0 |
| 20260905181235 | 36 | 335 | 3.2 | 8.0 | 0.00 | 0.00 | 0.00 | 40 | 1014.0 |
| 20260905180735 | 36 | 275 | 1.6 | 6.4 | 0.00 | 0.00 | 0.00 | 43 | 1014.0 |
| 20260905180235 | 36 | 281 | 4.8 | 11.3 | 0.00 | 0.00 | 0.00 | 42 | 1014.0 |
| 20260905175735 | 36 | 271 | 4.8 | 8.0 | 0.00 | 0.00 | 0.00 | 43 | 1014.0 |
| 20260905175235 | 36 | 229 | 11.3 | 12.9 | 0.00 | 0.00 | 0.00 | 43 | 1014.0 |
| 20260905174736 | 36 | 306 | 8.0 | 8.0 | 0.00 | 0.00 | 0.00 | 43 | 1014.0 |
| 20260905174235 | 35 | 310 | 4.8 | 8.0 | 0.00 | 0.00 | 0.00 | 43 | 1014.0 |
| 20260905173735 | 36 | 252 | 4.8 | 9.7 | 0.00 | 0.00 | 0.00 | 42 | 1014.0 |
| 20260905173235 | 36 | 247 | 8.0 | 9.7 | 0.00 | 0.00 | 0.00 | 43 | 1014.0 |
| 20260905172736 | 36 | 277 | 4.8 | 9.7 | 0.00 | 0.00 | 0.00 | 43 | 1014.0 |
| 20260905172235 | 35 | 278 | 4.8 | 8.0 | 0.00 | 0.00 | 0.00 | 44 | 1014.0 |
| 20260905171736 | 35 | 259 | 6.4 | 8.0 | 0.00 | 0.00 | 0.00 | 44 | 1015.0 |
| 20260905171239 | 35 | 245 | 6.4 | 11.3 | 0.00 | 0.00 | 0.00 | 43 | 1014.0 |
| 20260905170737 | 35 | 305 | 3.2 | 9.7 | 0.00 | 0.00 | 0.00 | 44 | 1014.0 |
| 20260905170236 | 35 | 287 | 4.8 | 8.0 | 0.00 | 0.00 | 0.00 | 45 | 1015.0 |
| 20260905165736 | 35 | 245 | 4.8 | 8.0 | 0.00 | 0.00 | 0.00 | 45 | 1015.0 |
| 20260905165236 | 35 | 228 | 6.4 | 8.0 | 0.00 | 0.00 | 0.00 | 46 | 1015.0 |
| 20260905164735 | 35 | 297 | 6.4 | 6.4 | 0.00 | 0.00 | 0.00 | 47 | 1015.0 |
| 20260905164236 | 35 | 263 | 9.7 | 9.7 | 0.00 | 0.00 | 0.00 | 46 | 1015.0 |
| 20260905163735 | 35 | 292 | 6.4 | 8.0 | 0.00 | 0.00 | 0.00 | 46 | 1015.0 |
| 20260905163237 | 34 | 302 | 3.2 | 6.4 | 0.00 | 0.00 | 0.00 | 48 | 1015.0 |
| 20260905162735 | 34 | 289 | 8.0 | 8.0 | 0.00 | 0.00 | 0.00 | 47 | 1015.0 |
| 20260905162235 | 34 | 273 | 6.4 | 9.7 | 0.00 | 0.00 | 0.00 | 49 | 1015.0 |
| 20260905161735 | 33 | 268 | 4.8 | 11.3 | 0.00 | 0.00 | 0.00 | 48 | 1015.0 |
| 20260905161235 | 33 | 280 | 4.8 | 6.4 | 0.00 | 0.00 | 0.00 | 49 | 1015.0 |
| 20260905160736 | 33 | 254 | 3.2 | 8.0 | 0.00 | 0.00 | 0.00 | 50 | 1015.0 |
| 20260905160236 | 33 | 289 | 4.8 | 9.7 | 0.00 | 0.00 | 0.00 | 50 | 1015.0 |
| 20260905155735 | 33 | 279 | 4.8 | 4.8 | 0.00 | 0.00 | 0.00 | 51 | 1015.0 |
| 20260905155235 | 33 | 293 | 4.8 | 6.4 | 0.00 | 0.00 | 0.00 | 51 | 1015.0 |
| 20260905154736 | 33 | 266 | 3.2 | 8.0 | 0.00 | 0.00 | 0.00 | 52 | 1015.0 |
| 20260905154235 | 32 | 277 | 3.2 | 4.8 | 0.00 | 0.00 | 0.00 | 54 | 1015.0 |
| 20260905153735 | 32 | 288 | 3.2 | 6.4 | 0.00 | 0.00 | 0.00 | 56 | 1015.0 |
| 20260905153235 | 32 | 269 | 6.4 | 8.0 | 0.00 | 0.00 | 0.00 | 56 | 1015.0 |
| 20260905152735 | 32 | 241 | 4.8 | 8.0 | 0.00 | 0.00 | 0.00 | 58 | 1015.0 |
| 20260905152235 | 31 | 255 | 4.8 | 6.4 | 0.00 | 0.00 | 0.00 | 58 | 1015.0 |
| 20260905151735 | 31 | 251 | 4.8 | 9.7 | 0.00 | 0.00 | 0.00 | 59 | 1015.0 |
| 20260905151235 | 30 | 241 | 3.2 | 8.0 | 0.00 | 0.00 | 0.00 | 60 | 1015.0 |
| 20260905150736 | 31 | 250 | 4.8 | 6.4 | 0.00 | 0.00 | 0.00 | 61 | 1015.0 |
| 20260905150235 | 30 | 239 | 3.2 | 4.8 | 0.00 | 0.00 | 0.00 | 62 | 1015.0 |
| 20260905145735 | 30 | 282 | 3.2 | 6.4 | 0.00 | 0.00 | 0.00 | 61 | 1015.0 |
| 20260905145235 | 31 | 267 | 4.8 | 8.0 | 0.00 | 0.00 | 0.00 | 61 | 1015.0 |
| 20260905144735 | 31 | 266 | 4.8 | 8.0 | 0.00 | 0.00 | 0.00 | 61 | 1015.0 |
| 20260905144236 | 30 | 246 | 6.4 | 8.0 | 0.00 | 0.00 | 0.00 | 61 | 1015.0 |
| 20260905143735 | 30 | 264 | 6.4 | 8.0 | 0.00 | 0.00 | 0.00 | 62 | 1015.0 |
| 20260905143235 | 30 | 260 | 3.2 | 6.4 | 0.00 | 0.00 | 0.00 | 63 | 1015.0 |
| 20260905142735 | 30 | 274 | 4.8 | 6.4 | 0.00 | 0.00 | 0.00 | 63 | 1015.0 |
| 20260905142236 | 29 | 257 | 4.8 | 9.7 | 0.00 | 0.00 | 0.00 | 63 | 1015.0 |
| 20260905141735 | 29 | 271 | 4.8 | 8.0 | 0.00 | 0.00 | 0.00 | 63 | 1015.0 |
| 20260905141235 | 29 | 272 | 4.8 | 6.4 | 0.00 | 0.00 | 0.00 | 64 | 1015.0 |
| 20260905140738 | 29 | 258 | 4.8 | 11.3 | 0.00 | 0.00 | 0.00 | 64 | 1015.0 |
| 20260905140236 | 29 | 264 | 4.8 | 8.0 | 0.00 | 0.00 | 0.00 | 64 | 1015.0 |
| 20260905135735 | 28 | 257 | 3.2 | 6.4 | 0.00 | 0.00 | 0.00 | 65 | 1015.0 |
| 20260905134755 | 28 | 262 | 4.8 | 6.4 | 0.00 | 0.00 | 0.00 | 66 | 1015.0 |
| 20260905134235 | 28 | 274 | 4.8 | 8.0 | 0.00 | 0.00 | 0.00 | 66 | 1015.0 |
| 20260905133735 | 28 | 255 | 3.2 | 6.4 | 0.00 | 0.00 | 0.00 | 67 | 1015.0 |
| 20260905133235 | 28 | 249 | 4.8 | 4.8 | 0.00 | 0.00 | 0.00 | 68 | 1015.0 |
| 20260905132736 | 28 | 234 | 4.8 | 6.4 | 0.00 | 0.00 | 0.00 | 69 | 1015.0 |
| 20260905132235 | 28 | 250 | 3.2 | 6.4 | 0.00 | 0.00 | 0.00 | 69 | 1015.0 |
| 20260905131735 | 28 | 249 | 4.8 | 6.4 | 0.00 | 0.00 | 0.00 | 69 | 1015.0 |
| 20260905131235 | 27 | 254 | 4.8 | 4.8 | 0.00 | 0.00 | 0.00 | 70 | 1015.0 |
| 20260905130735 | 27 | 267 | 3.2 | 4.8 | 0.00 | 0.00 | 0.00 | 70 | 1015.0 |
| 20260905130235 | 27 | 262 | 3.2 | 4.8 | 0.00 | 0.00 | 0.00 | 71 | 1015.0 |
| 20260905125735 | 27 | 265 | 4.8 | 4.8 | 0.00 | 0.00 | 0.00 | 72 | 1015.0 |
| 20260905125235 | 26 | 248 | 3.2 | 3.2 | 0.00 | 0.00 | 0.00 | 73 | 1015.0 |
| 20260905124735 | 26 | 241 | 4.8 | 4.8 | 0.00 | 0.00 | 0.00 | 74 | 1015.0 |
| 20260905124235 | 26 | 274 | 1.6 | 3.2 | 0.00 | 0.00 | 0.00 | 75 | 1015.0 |
| 20260905123736 | 26 | 253 | 4.8 | 4.8 | 0.00 | 0.00 | 0.00 | 74 | 1015.0 |
| 20260905123236 | 26 | 249 | 3.2 | 3.2 | 0.00 | 0.00 | 0.00 | 74 | 1014.0 |
| 20260905122735 | 26 | 246 | 3.2 | 3.2 | 0.00 | 0.00 | 0.00 | 75 | 1014.0 |
| 20260905122235 | 26 | 252 | 3.2 | 4.8 | 0.00 | 0.00 | 0.00 | 75 | 1014.0 |
| 20260905121735 | 26 | 261 | 3.2 | 3.2 | 0.00 | 0.00 | 0.00 | 74 | 1014.0 |
| 20260905121236 | 26 | 246 | 1.6 | 3.2 | 0.00 | 0.00 | 0.00 | 75 | 1015.0 |
| 20260905120735 | 26 | 246 | 3.2 | 4.8 | 0.00 | 0.00 | 0.00 | 74 | 1015.0 |
| 20260905120235 | 26 | 248 | 3.2 | 4.8 | 0.00 | 0.00 | 0.00 | 74 | 1014.0 |
| 20260905115736 | 26 | 249 | 4.8 | 4.8 | 0.00 | 0.00 | 0.00 | 74 | 1014.0 |
| 20260905115235 | 26 | 228 | 3.2 | 3.2 | 0.00 | 0.00 | 0.00 | 74 | 1014.0 |
| 20260905114736 | 26 | 282 | 1.6 | 3.2 | 0.00 | 0.00 | 0.00 | 74 | 1014.0 |
| 20260905114235 | 26 | 244 | 3.2 | 4.8 | 0.00 | 0.00 | 0.00 | 74 | 1014.0 |
| 20260905113735 | 26 | 249 | 3.2 | 3.2 | 0.00 | 0.00 | 0.00 | 75 | 1014.0 |
| 20260905113235 | 26 | 232 | 1.6 | 3.2 | 0.00 | 0.00 | 0.00 | 76 | 1014.0 |
| 20260905112735 | 26 | 224 | 0.0 | 3.2 | 0.00 | 0.00 | 0.00 | 76 | 1014.0 |
| 20260905112235 | 26 | 236 | 3.2 | 3.2 | 0.00 | 0.00 | 0.00 | 77 | 1014.0 |
| 20260905111735 | 26 | 228 | 0.0 | 1.6 | 0.00 | 0.00 | 0.00 | 78 | 1014.0 |
| 20260905111235 | 26 | 245 | 0.0 | 1.6 | 0.00 | 0.00 | 0.00 | 78 | 1014.0 |
| 20260905110735 | 26 | 258 | 1.6 | 3.2 | 0.00 | 0.00 | 0.00 | 78 | 1014.0 |
| 20260905110237 | 26 | 254 | 0.0 | 1.6 | 0.00 | 0.00 | 0.00 | 78 | 1014.0 |
| 20260905105735 | 26 | 231 | 1.6 | 3.2 | 0.00 | 0.00 | 0.00 | 78 | 1014.0 |
| 20260905105235 | 26 | 260 | 1.6 | 1.6 | 0.00 | 0.00 | 0.00 | 77 | 1014.0 |
| 20260905104735 | 26 | 260 | 1.6 | 3.2 | 0.00 | 0.00 | 0.00 | 77 | 1014.0 |
| 20260905104235 | 26 | 253 | 1.6 | 3.2 | 0.00 | 0.00 | 0.00 | 77 | 1014.0 |
| 20260905103735 | 26 | 267 | 1.6 | 3.2 | 0.00 | 0.00 | 0.00 | 77 | 1014.0 |
| 20260905103235 | 26 | 247 | 1.6 | 3.2 | 0.00 | 0.00 | 0.00 | 77 | 1014.0 |
| 20260905102735 | 26 | 252 | 0.0 | 3.2 | 0.00 | 0.00 | 0.00 | 76 | 1014.0 |
| 20260905102236 | 26 | 223 | 1.6 | 3.2 | 0.00 | 0.00 | 0.00 | 76 | 1014.0 |
| 20260905101735 | 26 | 238 | 1.6 | 3.2 | 0.00 | 0.00 | 0.00 | 77 | 1014.0 |
| 20260905101235 | 26 | 242 | 1.6 | 3.2 | 0.00 | 0.00 | 0.00 | 76 | 1014.0 |
| 20260905100735 | 26 | 221 | 1.6 | 3.2 | 0.00 | 0.00 | 0.00 | 77 | 1014.0 |
| 20260905100235 | 26 | 227 | 1.6 | 3.2 | 0.00 | 0.00 | 0.00 | 77 | 1014.0 |
| 20260905095735 | 26 | 258 | 0.0 | 3.2 | 0.00 | 0.00 | 0.00 | 77 | 1014.0 |
| 20260905095235 | 26 | 249 | 1.6 | 3.2 | 0.00 | 0.00 | 0.00 | 78 | 1014.0 |
| 20260905094735 | 26 | 222 | 0.0 | 1.6 | 0.00 | 0.00 | 0.00 | 78 | 1014.0 |
| 20260905094235 | 26 | 242 | 0.0 | 1.6 | 0.00 | 0.00 | 0.00 | 77 | 1014.0 |
| 20260905093735 | 26 | 266 | 1.6 | 1.6 | 0.00 | 0.00 | 0.00 | 77 | 1014.0 |
| 20260905093235 | 26 | 261 | 1.6 | 3.2 | 0.00 | 0.00 | 0.00 | 77 | 1014.0 |
| 20260905092735 | 26 | 258 | 1.6 | 3.2 | 0.00 | 0.00 | 0.00 | 77 | 1014.0 |
| 20260905092235 | 26 | 254 | 0.0 | 3.2 | 0.00 | 0.00 | 0.00 | 76 | 1014.0 |
| 20260905091735 | 26 | 263 | 0.0 | 3.2 | 0.00 | 0.00 | 0.00 | 76 | 1014.0 |
| 20260905091235 | 26 | 249 | 1.6 | 3.2 | 0.00 | 0.00 | 0.00 | 76 | 1014.0 |
| 20260905090736 | 26 | 250 | 3.2 | 3.2 | 0.00 | 0.00 | 0.00 | 76 | 1014.0 |
| 20260905090235 | 26 | 257 | 1.6 | 3.2 | 0.00 | 0.00 | 0.00 | 75 | 1014.0 |
| 20260905085735 | 26 | 244 | 1.6 | 3.2 | 0.00 | 0.00 | 0.00 | 75 | 1014.0 |
| 20260905085235 | 26 | 260 | 1.6 | 3.2 | 0.00 | 0.00 | 0.00 | 75 | 1014.0 |
| 20260905084735 | 26 | 272 | 1.6 | 3.2 | 0.00 | 0.00 | 0.00 | 75 | 1014.0 |
| 20260905084235 | 26 | 230 | 0.0 | 3.2 | 0.00 | 0.00 | 0.00 | 75 | 1014.0 |
| 20260905083735 | 26 | 245 | 3.2 | 3.2 | 0.00 | 0.00 | 0.00 | 74 | 1014.0 |
| 20260905083235 | 27 | 232 | 1.6 | 3.2 | 0.00 | 0.00 | 0.00 | 74 | 1014.0 |
| 20260905082737 | 27 | 251 | 1.6 | 3.2 | 0.00 | 0.00 | 0.00 | 74 | 1014.0 |
| 20260905082235 | 27 | 243 | 3.2 | 4.8 | 0.00 | 0.00 | 0.00 | 74 | 1014.0 |
| 20260905081735 | 27 | 268 | 0.0 | 1.6 | 0.00 | 0.00 | 0.00 | 74 | 1014.0 |
| 20260905081236 | 27 | 235 | 0.0 | 3.2 | 0.00 | 0.00 | 0.00 | 73 | 1014.0 |
| 20260905080735 | 27 | 263 | 1.6 | 3.2 | 0.00 | 0.00 | 0.00 | 73 | 1014.0 |
| 20260905080235 | 27 | 262 | 1.6 | 3.2 | 0.00 | 0.00 | 0.00 | 73 | 1014.0 |
| 20260905075735 | 27 | 272 | 0.0 | 3.2 | 0.00 | 0.00 | 0.00 | 72 | 1014.0 |
| 20260905075235 | 27 | 275 | 1.6 | 3.2 | 0.00 | 0.00 | 0.00 | 72 | 1014.0 |
| 20260905074735 | 27 | 186 | 0.0 | 0.0 | 0.00 | 0.00 | 0.00 | 72 | 1014.0 |
| 20260905074235 | 27 | 258 | 1.6 | 1.6 | 0.00 | 0.00 | 0.00 | 72 | 1014.0 |
| 20260905073735 | 27 | 275 | 0.0 | 1.6 | 0.00 | 0.00 | 0.00 | 72 | 1014.0 |
| 20260905073235 | 27 | 258 | 1.6 | 3.2 | 0.00 | 0.00 | 0.00 | 71 | 1014.0 |
| 20260905072735 | 27 | 256 | 1.6 | 3.2 | 0.00 | 0.00 | 0.00 | 71 | 1014.0 |
| 20260905072236 | 27 | 226 | 3.2 | 3.2 | 0.00 | 0.00 | 0.00 | 71 | 1014.0 |
| 20260905071735 | 27 | 253 | 1.6 | 3.2 | 0.00 | 0.00 | 0.00 | 72 | 1014.0 |
| 20260905071235 | 27 | 248 | 1.6 | 3.2 | 0.00 | 0.00 | 0.00 | 71 | 1014.0 |
| 20260905070736 | 27 | 246 | 1.6 | 3.2 | 0.00 | 0.00 | 0.00 | 71 | 1014.0 |
| 20260905070236 | 27 | 257 | 1.6 | 3.2 | 0.00 | 0.00 | 0.00 | 71 | 1014.0 |
| 20260905065735 | 27 | 267 | 1.6 | 3.2 | 0.00 | 0.00 | 0.00 | 71 | 1014.0 |
| 20260905065235 | 27 | 253 | 1.6 | 3.2 | 0.00 | 0.00 | 0.00 | 71 | 1014.0 |
| 20260905064735 | 27 | 261 | 1.6 | 3.2 | 0.00 | 0.00 | 0.00 | 70 | 1014.0 |
| 20260905064235 | 27 | 255 | 1.6 | 3.2 | 0.00 | 0.00 | 0.00 | 70 | 1014.0 |
| 20260905063736 | 27 | 229 | 1.6 | 3.2 | 0.00 | 0.00 | 0.00 | 70 | 1014.0 |
| 20260905063235 | 27 | 242 | 1.6 | 3.2 | 0.00 | 0.00 | 0.00 | 70 | 1014.0 |
| 20260905062736 | 27 | 252 | 1.6 | 3.2 | 0.00 | 0.00 | 0.00 | 70 | 1014.0 |
| 20260905062235 | 27 | 247 | 1.6 | 3.2 | 0.00 | 0.00 | 0.00 | 69 | 1014.0 |
| 20260905061736 | 27 | 263 | 1.6 | 3.2 | 0.00 | 0.00 | 0.00 | 69 | 1014.0 |
| 20260905061235 | 27 | 266 | 1.6 | 3.2 | 0.00 | 0.00 | 0.00 | 69 | 1014.0 |
| 20260905060735 | 27 | 243 | 0.0 | 3.2 | 0.00 | 0.00 | 0.00 | 69 | 1014.0 |
| 20260905060235 | 27 | 245 | 3.2 | 3.2 | 0.00 | 0.00 | 0.00 | 69 | 1015.0 |
| 20260905055735 | 27 | 264 | 3.2 | 3.2 | 0.00 | 0.00 | 0.00 | 69 | 1015.0 |
| 20260905055237 | 27 | 269 | 0.0 | 3.2 | 0.00 | 0.00 | 0.00 | 69 | 1014.0 |
| 20260905054735 | 28 | 257 | 1.6 | 1.6 | 0.00 | 0.00 | 0.00 | 69 | 1014.0 |
| 20260905054235 | 28 | 261 | 1.6 | 3.2 | 0.00 | 0.00 | 0.00 | 68 | 1015.0 |
| 20260905053735 | 28 | 269 | 1.6 | 3.2 | 0.00 | 0.00 | 0.00 | 69 | 1015.0 |
| 20260905053235 | 28 | 269 | 0.0 | 3.2 | 0.00 | 0.00 | 0.00 | 69 | 1014.0 |